Time,TemperatureF,DewpointF,PressureIn,WindDirection,WindDirectionDegrees,WindSpeedMPH,WindSpeedGustMPH,Humidity,HourlyPrecipIn,Conditions,Clouds,dailyrainin,SoftwareType,DateUTC
2013-05-31 00:08:00,64.0,40.0,29.89,NE,43,0.0,0.0,41,0.00,,,0.00,weatherlink.com 1.10,2013-05-31 08:08:00,
2013-05-31 00:38:00,61.9,40.0,29.89,NE,42,0.0,1.0,45,0.00,,,0.00,weatherlink.com 1.10,2013-05-31 08:38:00,
2013-05-31 00:53:00,61.3,40.0,29.90,NE,43,0.0,1.0,45,0.00,,,0.00,weatherlink.com 1.10,2013-05-31 08:53:00,
2013-05-31 01:08:00,60.3,40.0,29.91,NE,43,0.0,0.0,48,0.00,,,0.00,weatherlink.com 1.10,2013-05-31 09:08:00,
2013-05-31 01:23:00,59.0,41.0,29.91,NE,43,0.0,0.0,51,0.00,,,0.00,weatherlink.com 1.10,2013-05-31 09:23:00,
2013-05-31 01:38:00,58.0,40.0,29.91,East,93,0.0,1.0,52,0.00,,,0.00,weatherlink.com 1.10,2013-05-31 09:38:00,
2013-05-31 01:53:00,57.2,40.0,29.92,East,94,0.0,0.0,54,0.00,,,0.00,weatherlink.com 1.10,2013-05-31 09:53:00,
2013-05-31 02:08:00,56.3,41.0,29.92,East,94,0.0,0.0,56,0.00,,,0.00,weatherlink.com 1.10,2013-05-31 10:08:00,
2013-05-31 02:23:00,55.9,41.0,29.93,East,94,0.0,0.0,57,0.00,,,0.00,weatherlink.com 1.10,2013-05-31 10:23:00,
2013-05-31 02:38:00,56.0,41.0,29.93,East,93,0.0,1.0,57,0.00,,,0.00,weatherlink.com 1.10,2013-05-31 10:38:00,
2013-05-31 02:54:00,55.5,41.0,29.93,East,94,0.0,0.0,58,0.00,,,0.00,weatherlink.com 1.10,2013-05-31 10:54:00,
2013-05-31 03:09:00,54.4,41.0,29.94,East,94,0.0,0.0,60,0.00,,,0.00,weatherlink.com 1.10,2013-05-31 11:09:00,
2013-05-31 03:24:00,53.6,41.0,29.94,East,94,0.0,0.0,62,0.00,,,0.00,weatherlink.com 1.10,2013-05-31 11:24:00,
2013-05-31 03:39:00,52.7,41.0,29.94,East,94,0.0,0.0,64,0.00,,,0.00,weatherlink.com 1.10,2013-05-31 11:39:00,
2013-05-31 03:54:00,52.1,41.0,29.95,East,93,0.0,0.0,65,0.00,,,0.00,weatherlink.com 1.10,2013-05-31 11:54:00,
2013-05-31 04:09:00,51.9,41.0,29.95,East,93,0.0,0.0,66,0.00,,,0.00,weatherlink.com 1.10,2013-05-31 12:09:00,
2013-05-31 04:24:00,52.1,41.0,29.96,East,94,0.0,0.0,66,0.00,,,0.00,weatherlink.com 1.10,2013-05-31 12:24:00,
2013-05-31 04:39:00,51.7,41.0,29.96,East,94,0.0,1.0,66,0.00,,,0.00,weatherlink.com 1.10,2013-05-31 12:39:00,
2013-05-31 04:54:00,51.4,41.0,29.96,East,94,0.0,1.0,68,0.00,,,0.00,weatherlink.com 1.10,2013-05-31 12:54:00,
2013-05-31 05:09:00,51.1,41.0,29.96,East,94,0.0,1.0,69,0.00,,,0.00,weatherlink.com 1.10,2013-05-31 13:09:00,
2013-05-31 05:24:00,51.0,41.0,29.97,East,94,0.0,1.0,69,0.00,,,0.00,weatherlink.com 1.10,2013-05-31 13:24:00,
2013-05-31 05:39:00,50.8,41.0,29.97,East,91,1.0,1.0,69,0.00,,,0.00,weatherlink.com 1.10,2013-05-31 13:39:00,
2013-05-31 05:54:00,50.9,41.0,29.97,ENE,77,1.0,2.0,69,0.00,,,0.00,weatherlink.com 1.10,2013-05-31 13:54:00,
2013-05-31 06:09:00,51.5,41.0,29.98,East,95,0.0,1.0,68,0.00,,,0.00,weatherlink.com 1.10,2013-05-31 14:09:00,
2013-05-31 06:24:00,52.0,42.0,29.98,SE,131,0.0,2.0,68,0.00,,,0.00,weatherlink.com 1.10,2013-05-31 14:24:00,
2013-05-31 06:39:00,52.5,43.0,29.98,SSE,153,0.0,1.0,69,0.00,,,0.00,weatherlink.com 1.10,2013-05-31 14:39:00,
2013-05-31 06:54:00,52.5,42.0,29.99,East,101,0.0,1.0,67,0.00,,,0.00,weatherlink.com 1.10,2013-05-31 14:54:00,
2013-05-31 07:09:00,53.1,43.0,29.98,NE,34,0.0,1.0,68,0.00,,,0.00,weatherlink.com 1.10,2013-05-31 15:09:00,
2013-05-31 07:24:00,53.6,44.0,29.98,NE,34,0.0,0.0,69,0.00,,,0.00,weatherlink.com 1.10,2013-05-31 15:24:00,
2013-05-31 07:39:00,54.8,44.0,29.99,NE,34,0.0,0.0,68,0.00,,,0.00,weatherlink.com 1.10,2013-05-31 15:39:00,
2013-05-31 07:54:00,56.7,45.0,29.99,NE,34,0.0,0.0,66,0.00,,,0.00,weatherlink.com 1.10,2013-05-31 15:54:00,
2013-05-31 08:09:00,61.5,45.0,29.99,SW,235,0.0,1.0,56,0.00,,,0.00,weatherlink.com 1.10,2013-05-31 16:09:00,
2013-05-31 08:24:00,64.2,44.0,30.00,WSW,257,0.0,1.0,48,0.00,,,0.00,weatherlink.com 1.10,2013-05-31 16:24:00,
2013-05-31 08:39:00,66.0,42.0,30.00,SW,214,1.0,2.0,42,0.00,,,0.00,weatherlink.com 1.10,2013-05-31 16:39:00,
2013-05-31 08:54:00,66.8,43.0,30.00,SSW,212,1.0,2.0,42,0.00,,,0.00,weatherlink.com 1.10,2013-05-31 16:54:00,
2013-05-31 09:09:00,67.0,44.0,30.01,SSW,201,1.0,3.0,43,0.00,,,0.00,weatherlink.com 1.10,2013-05-31 17:09:00,
2013-05-31 09:24:00,66.6,44.0,30.00,SSE,162,0.0,3.0,44,0.00,,,0.00,weatherlink.com 1.10,2013-05-31 17:24:00,
2013-05-31 09:39:00,65.5,44.0,30.01,NE,36,1.0,3.0,46,0.00,,,0.00,weatherlink.com 1.10,2013-05-31 17:39:00,
2013-05-31 09:54:00,65.5,43.0,30.00,SE,131,0.0,2.0,45,0.00,,,0.00,weatherlink.com 1.10,2013-05-31 17:54:00,
2013-05-31 10:09:00,64.9,48.0,30.01,SSW,197,3.0,3.0,54,0.00,,,0.00,weatherlink.com 1.10,2013-05-31 18:09:00,
2013-05-31 10:24:00,61.8,49.0,30.02,SW,215,0.0,1.0,63,0.00,,,0.00,weatherlink.com 1.10,2013-05-31 18:24:00,
2013-05-31 10:39:00,61.8,50.0,30.02,WSW,243,0.0,0.0,65,0.00,,,0.00,weatherlink.com 1.10,2013-05-31 18:39:00,
2013-05-31 10:54:00,63.0,50.0,30.02,WSW,240,0.0,1.0,62,0.00,,,0.00,weatherlink.com 1.10,2013-05-31 18:54:00,
2013-05-31 11:09:00,64.1,45.0,30.02,SW,222,0.0,1.0,51,0.00,,,0.00,weatherlink.com 1.10,2013-05-31 19:09:00,
2013-05-31 11:24:00,64.9,45.0,30.02,SSE,156,0.0,2.0,48,0.00,,,0.00,weatherlink.com 1.10,2013-05-31 19:24:00,
2013-05-31 11:39:00,65.2,44.0,30.01,South,178,0.0,1.0,46,0.00,,,0.00,weatherlink.com 1.10,2013-05-31 19:39:00,
2013-05-31 11:54:00,66.2,44.0,30.01,South,178,0.0,1.0,45,0.00,,,0.00,weatherlink.com 1.10,2013-05-31 19:54:00,
2013-05-31 12:10:00,68.0,43.0,30.01,ENE,60,0.0,1.0,41,0.00,,,0.00,weatherlink.com 1.10,2013-05-31 20:10:00,
2013-05-31 12:25:00,70.1,45.0,30.01,West,259,1.0,4.0,40,0.00,,,0.00,weatherlink.com 1.10,2013-05-31 20:25:00,
2013-05-31 12:40:00,72.0,45.0,30.00,NNE,22,2.0,2.0,38,0.00,,,0.00,weatherlink.com 1.10,2013-05-31 20:40:00,
2013-05-31 12:55:00,73.2,44.0,30.00,SW,215,0.0,2.0,35,0.00,,,0.00,weatherlink.com 1.10,2013-05-31 20:55:00,
2013-05-31 13:10:00,74.2,45.0,30.00,NNE,12,1.0,3.0,36,0.00,,,0.00,weatherlink.com 1.10,2013-05-31 21:10:00,
2013-05-31 13:25:00,74.3,45.0,29.99,NW,325,0.0,2.0,35,0.00,,,0.00,weatherlink.com 1.10,2013-05-31 21:25:00,
2013-05-31 13:40:00,75.7,46.0,29.98,ESE,103,2.0,4.0,35,0.00,,,0.00,weatherlink.com 1.10,2013-05-31 21:40:00,
2013-05-31 13:55:00,75.8,45.0,29.98,ENE,65,2.0,5.0,34,0.00,,,0.00,weatherlink.com 1.10,2013-05-31 21:55:00,
2013-05-31 14:10:00,77.3,47.0,29.98,SE,143,1.0,5.0,34,0.00,,,0.00,weatherlink.com 1.10,2013-05-31 22:10:00,
2013-05-31 14:25:00,77.8,45.0,29.97,ESE,122,2.0,5.0,31,0.00,,,0.00,weatherlink.com 1.10,2013-05-31 22:25:00,
2013-05-31 14:40:00,78.6,43.0,29.97,ESE,115,1.0,4.0,28,0.00,,,0.00,weatherlink.com 1.10,2013-05-31 22:40:00,
2013-05-31 14:55:00,79.5,43.0,29.96,SW,229,0.0,4.0,27,0.00,,,0.00,weatherlink.com 1.10,2013-05-31 22:55:00,
2013-05-31 15:10:00,79.8,41.0,29.96,SW,219,0.0,6.0,25,0.00,,,0.00,weatherlink.com 1.10,2013-05-31 23:10:00,
2013-05-31 15:25:00,79.7,41.0,29.96,South,174,3.0,10.0,25,0.00,,,0.00,weatherlink.com 1.10,2013-05-31 23:25:00,
2013-05-31 15:40:00,80.7,41.0,29.95,SW,215,0.0,4.0,24,0.00,,,0.00,weatherlink.com 1.10,2013-05-31 23:40:00,
2013-05-31 15:55:00,81.4,37.0,29.95,SSW,194,2.0,7.0,20,0.00,,,0.00,weatherlink.com 1.10,2013-05-31 23:55:00,
2013-05-31 16:10:00,81.0,39.0,29.95,East,91,2.0,7.0,22,0.00,,,0.00,weatherlink.com 1.10,2013-06-01 00:10:00,
2013-05-31 16:25:00,80.8,37.0,29.95,SW,236,2.0,6.0,21,0.00,,,0.00,weatherlink.com 1.10,2013-06-01 00:25:00,
2013-05-31 16:40:00,80.3,37.0,29.95,West,262,1.0,4.0,21,0.00,,,0.00,weatherlink.com 1.10,2013-06-01 00:40:00,
2013-05-31 16:55:00,79.7,35.0,29.96,SW,214,2.0,8.0,20,0.00,,,0.00,weatherlink.com 1.10,2013-06-01 00:55:00,
2013-05-31 17:10:00,79.6,35.0,29.95,SSW,195,1.0,4.0,20,0.00,,,0.00,weatherlink.com 1.10,2013-06-01 01:10:00,
2013-05-31 17:25:00,79.8,36.0,29.96,SE,127,1.0,6.0,21,0.00,,,0.00,weatherlink.com 1.10,2013-06-01 01:25:00,
2013-05-31 17:40:00,79.3,31.0,29.96,SE,136,3.0,6.0,17,0.00,,,0.00,weatherlink.com 1.10,2013-06-01 01:40:00,
2013-05-31 17:55:00,79.2,31.0,29.96,East,89,4.0,10.0,17,0.00,,,0.00,weatherlink.com 1.10,2013-06-01 01:55:00,
2013-05-31 18:10:00,78.8,32.0,29.96,NE,52,1.0,4.0,18,0.00,,,0.00,weatherlink.com 1.10,2013-06-01 02:10:00,
2013-05-31 18:25:00,78.6,30.0,29.96,ESE,122,1.0,4.0,17,0.00,,,0.00,weatherlink.com 1.10,2013-06-01 02:25:00,
2013-05-31 18:40:00,78.6,30.0,29.95,SSW,203,0.0,3.0,17,0.00,,,0.00,weatherlink.com 1.10,2013-06-01 02:40:00,
2013-05-31 18:55:00,77.9,27.0,29.95,SSW,210,2.0,4.0,15,0.00,,,0.00,weatherlink.com 1.10,2013-06-01 02:55:00,
2013-05-31 19:10:00,77.5,26.0,29.95,ESE,113,0.0,4.0,15,0.00,,,0.00,weatherlink.com 1.10,2013-06-01 03:10:00,
2013-05-31 19:25:00,77.2,24.0,29.95,NNW,340,0.0,3.0,14,0.00,,,0.00,weatherlink.com 1.10,2013-06-01 03:25:00,
2013-05-31 19:40:00,76.8,27.0,29.95,NNE,30,4.0,4.0,16,0.00,,,0.00,weatherlink.com 1.10,2013-06-01 03:40:00,
2013-05-31 19:55:00,76.5,25.0,29.95,North,10,0.0,5.0,15,0.00,,,0.00,weatherlink.com 1.10,2013-06-01 03:55:00,
2013-05-31 20:10:00,76.0,28.0,29.95,SE,138,0.0,2.0,17,0.00,,,0.00,weatherlink.com 1.10,2013-06-01 04:10:00,
2013-05-31 20:25:00,75.3,26.0,29.95,ENE,65,2.0,2.0,16,0.00,,,0.00,weatherlink.com 1.10,2013-06-01 04:25:00,
2013-05-31 20:56:00,74.4,31.0,29.95,SE,125,0.0,2.0,20,0.00,,,0.00,weatherlink.com 1.10,2013-06-01 04:56:00,
2013-05-31 21:11:00,73.3,31.0,29.96,ENE,78,0.0,7.0,21,0.00,,,0.00,weatherlink.com 1.10,2013-06-01 05:11:00,
2013-05-31 21:26:00,73.2,31.0,29.96,East,84,0.0,2.0,21,0.00,,,0.00,weatherlink.com 1.10,2013-06-01 05:26:00,
2013-05-31 21:41:00,72.8,34.0,29.97,ESE,119,0.0,3.0,24,0.00,,,0.00,weatherlink.com 1.10,2013-06-01 05:41:00,
2013-05-31 21:56:00,71.6,34.0,29.97,SSE,150,0.0,1.0,25,0.00,,,0.00,weatherlink.com 1.10,2013-06-01 05:56:00,
2013-05-31 22:11:00,70.1,34.0,29.97,East,82,0.0,1.0,26,0.00,,,0.00,weatherlink.com 1.10,2013-06-01 06:11:00,
2013-05-31 22:26:00,68.4,34.0,29.98,East,82,0.0,1.0,28,0.00,,,0.00,weatherlink.com 1.10,2013-06-01 06:26:00,
2013-05-31 22:41:00,67.3,34.0,29.98,East,82,0.0,0.0,29,0.00,,,0.00,weatherlink.com 1.10,2013-06-01 06:41:00,
2013-05-31 22:56:00,66.7,33.0,29.98,East,82,0.0,0.0,29,0.00,,,0.00,weatherlink.com 1.10,2013-06-01 06:56:00,
2013-05-31 23:11:00,66.3,34.0,29.99,East,82,0.0,0.0,30,0.00,,,0.00,weatherlink.com 1.10,2013-06-01 07:11:00,
2013-05-31 23:26:00,65.4,34.0,29.99,East,82,0.0,0.0,31,0.00,,,0.00,weatherlink.com 1.10,2013-06-01 07:26:00,
2013-05-31 23:41:00,64.7,33.0,30.00,East,82,0.0,0.0,31,0.00,,,0.00,weatherlink.com 1.10,2013-06-01 07:41:00,
2013-05-31 23:56:00,64.1,33.0,30.00,East,82,0.0,0.0,32,0.00,,,0.00,weatherlink.com 1.10,2013-06-01 07:56:00,